This demonstration page uses our WeatherBlox Daily Observations layout. Learn more.

Left ArrowRight Arrow

Hourly Observations for January 24, 2015

Temp ( °F °C ) Dew Point ( °F °C ) Humidity (%) Winds ( mph kmh ) Pressure ( in mb ) Visibility ( mi km ) Precip ( " mm )
12:08 am 00:08 Cloudy with Light Rain 41 5 39 4 93 93 Calm 29.80 1009 9 14 0.00 0.00
12:34 am 00:34 Cloudy 41 5 39 4 93 93 Calm 29.80 1009 10 16 0.00 0.00
12:53 am 00:53 Cloudy 41 5 39 3.9 93 93 Calm 29.75 1008 10 16 0.00 0.03
12:59 am 00:59 Cloudy 41 5 38 3.3 89 89 N 3 6 29.77 1008 10 16 0.00 0.00
1:14 am 01:14 Cloudy 41 5 39 4 93 93 Calm 29.77 1008 10 16 0.00 0.00
1:46 am 01:46 Cloudy 41 5 37 3 87 87 Calm 29.77 1008 10 16 0.00 0.00
1:53 am 01:53 Cloudy 41 5 39 3.9 93 93 W 3 6 29.74 1007 10 16 0.00 0.00
2:25 am 02:25 Cloudy 41 5 38 3.3 89 89 WNW 3 6 29.77 1008 9 14 0.00 0.00
2:32 am 02:32 Cloudy with Mist and Fog 41 5 39 4 93 93 WNW 3 6 29.77 1008 6 10 0.00 0.00
2:40 am 02:40 Cloudy with Mist and Fog 41 5 39 4 93 93 WNW 5 7 29.77 1008 5 8 0.00 0.00
2:53 am 02:53 Cloudy with Mist and Fog 41 5 39 3.9 93 93 W 5 7 29.75 1007 6 10 0.00 0.00
3:53 am 03:53 Cloudy 42 5.6 39 3.9 89 89 VRB 6 9 29.74 1007 10 16 0.00 0.00
4:53 am 04:53 Cloudy 42 5.6 39 3.9 89 89 WNW 8 13 29.74 1007 10 16 0.00 0.00
5:53 am 05:53 Cloudy 42 5.6 38 3.3 85 85 WNW 9 15 29.76 1008 8 13 0.00 0.00
6:53 am 06:53 Cloudy 40 4.4 36 2.2 86 86 WNW 13 20 29.81 1009 10 16 0.00 0.03
7:00 am 07:00 Cloudy 39 4 36 2 87 87 WNW 12 19 29.83 1010 10 16 0.00 0.00
7:07 am 07:07 Cloudy 40 4.4 36 2.2 86 86 W 10 17 29.83 1010 10 16 0.00 0.00
7:53 am 07:53 Cloudy 38 3.3 34 1.1 86 86 WNW 15 24 29.85 1011 10 16 0.00 0.00
8:53 am 08:53 Cloudy 38 3.3 33 0.6 83 83 WNW 12 19 29.88 1012 10 16 0.00 0.00
9:29 am 09:29 Cloudy 38 3.3 33 0.6 83 83 WNW 14 22 29.91 1013 10 16 0.00 0.00
9:53 am 09:53 Cloudy 38 3.3 33 0.6 83 83 WNW 9 15 29.90 1012 10 16 0.00 0.00
10:53 am 10:53 Cloudy 39 3.9 31 -0.6 73 73 WNW 16 26 29.92 1013 10 16 0.00 0.00
11:41 am 11:41 Partly Cloudy 40 4.4 30 -1.1 68 68 WNW 13 20 29.94 1014 10 16 0.00 0.00
11:53 am 11:53 Mostly Sunny 41 5 30 -1.1 65 65 NW 10 17 29.93 1013 10 16 0.00 0.00
12:53 pm 12:53 Sunny 44 6.7 30 -1.1 58 58 WNW 14 22 29.91 1013 10 16 0.00 0.00
1:53 pm 13:53 Sunny 46 7.8 28 -2.2 50 50 WNW 12 19 29.90 1012 10 16 0.00 0.00
2:53 pm 14:53 Sunny 47 8.3 27 -2.8 46 46 W 13 20 29.90 1012 10 16 0.00 0.00
3:53 pm 15:53 Sunny 47 8.3 25 -3.9 42 42 WNW 15 24 29.91 1013 10 16 0.00 0.00
4:53 pm 16:53 Sunny 47 8.3 24 -4.4 41 41 W 13 20 29.91 1013 10 16 0.00 0.00
5:53 pm 17:53 Sunny 45 7.2 24 -4.4 44 44 WNW 9 15 29.93 1014 10 16 0.00 0.00
6:53 pm 18:53 Clear 44 6.7 25 -3.9 47 47 SSW 3 6 29.95 1014 10 16 0.00 0.00
7:53 pm 19:53 Clear 42 5.6 26 -3.3 53 53 Calm 29.95 1014 10 16 0.00 0.00
8:53 pm 20:53 Clear 38 3.3 27 -2.8 65 65 Calm 29.97 1015 10 16 0.00 0.00
9:53 pm 21:53 Clear 37 2.8 26 -3.3 65 65 SSW 3 6 29.97 1015 10 16 0.00 0.00
10:53 pm 22:53 Clear 38 3.3 27 -2.8 65 65 SW 6 9 29.98 1015 10 16 0.00 0.00
11:53 pm 23:53 Clear 36 2.2 27 -2.8 70 70 SSW 5 7 29.99 1016 10 16 0.00 0.00

Powered by AerisWeather